• In Netherlands
  • List of Countries
  • For 7 days
  • Water Temperature
  • Satellite Maps
  • Weather Map
  • Weather Widgets
  • user-avatar
    Login

    Hourly Weather Ropotamo

    Today, 29 March, Wednesday

    Time Temperature Precipitation Wind Pressure Humidity
    00:00 +8°C° 0 mm 1 mps 762 mmHg 77%
    01:00 +7°C° 0 mm 1 mps 762 mmHg 78%
    02:00 +7°C° 0 mm 1 mps 762 mmHg 77%
    03:00 +7°C° 0 mm 1 mps 762 mmHg 78%
    04:00 +7°C° 0 mm 1 mps 762 mmHg 78%
    05:00 +7°C° 0 mm 1 mps 762 mmHg 79%
    06:00 +9°C° 0 mm 1 mps 762 mmHg 72%
    07:00 +11°C° 0 mm 1 mps 762 mmHg 65%
    08:00 +13°C° 0 mm 1 mps 763 mmHg 55%
    09:00 +15°C° 0 mm 1 mps 763 mmHg 53%
    10:00 +16°C° 0 mm 1 mps 763 mmHg 50%
    11:00 +18°C° 0 mm 1 mps 763 mmHg 48%
    12:00 +19°C° 0 mm 1 mps 763 mmHg 47%
    13:00 +18°C° 0 mm 2 mps 763 mmHg 46%
    14:00 +19°C° 0 mm 2 mps 762 mmHg 46%
    15:00 +18°C° 0 mm 2 mps 762 mmHg 49%
    16:00 +18°C° 0 mm 2 mps 762 mmHg 53%
    17:00 +17°C° 0 mm 2 mps 761 mmHg 57%
    18:00 +15°C° 0 mm 1 mps 761 mmHg 63%
    19:00 +12°C° 0 mm 1 mps 761 mmHg 68%
    20:00 +10°C° 0 mm 1 mps 761 mmHg 73%
    21:00 +10°C° 0 mm 1 mps 761 mmHg 73%
    22:00 +9°C° 0 mm 1 mps 761 mmHg 74%
    23:00 +8°C° 0 mm 0 mps 761 mmHg 74%

    Tomorrow, 30 March, Thursday

    Time Temperature Precipitation Wind Pressure Humidity
    00:00 +8°C° 0 mm 0 mps 761 mmHg 76%
    01:00 +7°C° 0 mm 0 mps 761 mmHg 78%
    02:00 +7°C° 0 mm 0 mps 761 mmHg 80%
    03:00 +8°C° 0 mm 1 mps 760 mmHg 79%
    04:00 +8°C° 0 mm 1 mps 760 mmHg 79%
    05:00 +8°C° 0 mm 1 mps 760 mmHg 79%
    06:00 +9°C° 0 mm 2 mps 760 mmHg 73%
    07:00 +12°C° 0 mm 2 mps 760 mmHg 67%
    08:00 +14°C° 0 mm 2 mps 760 mmHg 62%
    09:00 +16°C° 0 mm 2 mps 761 mmHg 58%
    10:00 +18°C° 0 mm 2 mps 761 mmHg 54%
    11:00 +19°C° 0 mm 3 mps 761 mmHg 50%
    12:00 +19°C° 0 mm 3 mps 761 mmHg 50%
    13:00 +19°C° 0 mm 4 mps 761 mmHg 50%
    14:00 +20°C° 0 mm 5 mps 761 mmHg 50%
    15:00 +17°C° 0 mm 5 mps 761 mmHg 57%
    16:00 +15°C° 0 mm 6 mps 761 mmHg 64%
    17:00 +14°C° 0 mm 6 mps 761 mmHg 71%
    18:00 +12°C° 0 mm 5 mps 762 mmHg 77%
    19:00 +11°C° 0 mm 4 mps 762 mmHg 83%
    20:00 +10°C° 0 mm 4 mps 763 mmHg 89%
    21:00 +10°C° 0 mm 3 mps 763 mmHg 89%
    22:00 +10°C° 0 mm 3 mps 764 mmHg 89%
    23:00 +9°C° 0 mm 3 mps 764 mmHg 89%

    Day after tomorrow, 31 March, Friday

    Time Temperature Precipitation Wind Pressure Humidity
    00:00 +8°C° 0 mm 4 mps 764 mmHg 89%
    01:00 +8°C° 0 mm 4 mps 764 mmHg 89%
    02:00 +7°C° 0 mm 5 mps 765 mmHg 89%
    03:00 +7°C° 0 mm 6 mps 765 mmHg 90%
    04:00 +7°C° 0 mm 6 mps 765 mmHg 91%
    05:00 +6°C° 0 mm 7 mps 765 mmHg 91%
    06:00 +6°C° 0 mm 8 mps 765 mmHg 88%
    07:00 +6°C° 0 mm 8 mps 766 mmHg 85%
    08:00 +6°C° 0 mm 9 mps 766 mmHg 82%
    09:00 +7°C° 0 mm 9 mps 766 mmHg 78%
    10:00 +7°C° 0 mm 9 mps 767 mmHg 75%
    11:00 +8°C° 0 mm 9 mps 767 mmHg 72%
    12:00 +8°C° 0.1 mm 9 mps 767 mmHg 72%
    13:00 +9°C° 0.1 mm 8 mps 766 mmHg 72%
    14:00 +9°C° 0.1 mm 8 mps 766 mmHg 73%
    15:00 +7°C° 0 mm 8 mps 766 mmHg 75%
    16:00 +7°C° 0 mm 8 mps 766 mmHg 77%
    17:00 +6°C° 0 mm 7 mps 766 mmHg 80%
    18:00 +7°C° 0 mm 6 mps 766 mmHg 83%
    19:00 +5°C° 0 mm 6 mps 766 mmHg 86%
    20:00 +5°C° 0 mm 5 mps 767 mmHg 89%
    21:00 +5°C° 0 mm 5 mps 767 mmHg 90%
    22:00 +4°C° 0 mm 4 mps 766 mmHg 91%
    23:00 +4°C° 0 mm 4 mps 766 mmHg 91%

    1 April, Saturday

    Time Temperature Precipitation Wind Pressure Humidity
    00:00 +4°C° 0 mm 4 mps 766 mmHg 91%
    01:00 +3°C° 0 mm 4 mps 766 mmHg 91%
    02:00 +3°C° 0 mm 3 mps 765 mmHg 91%
    03:00 +2°C° 0 mm 3 mps 765 mmHg 91%
    04:00 +2°C° 0 mm 3 mps 765 mmHg 90%
    05:00 +2°C° 0 mm 3 mps 765 mmHg 89%
    06:00 +3°C° 0 mm 3 mps 765 mmHg 84%
    07:00 +4°C° 0 mm 3 mps 765 mmHg 79%
    08:00 +5°C° 0 mm 3 mps 765 mmHg 74%
    09:00 +7°C° 0 mm 3 mps 765 mmHg 69%
    10:00 +9°C° 0 mm 3 mps 765 mmHg 64%
    11:00 +10°C° 0 mm 3 mps 765 mmHg 60%
    12:00 +10°C° 0 mm 3 mps 765 mmHg 58%
    13:00 +11°C° 0 mm 3 mps 764 mmHg 57%
    14:00 +12°C° 0 mm 3 mps 764 mmHg 56%
    15:00 +11°C° 0 mm 3 mps 764 mmHg 59%
    16:00 +10°C° 0 mm 3 mps 764 mmHg 62%
    17:00 +10°C° 0 mm 3 mps 764 mmHg 66%
    18:00 +8°C° 0 mm 3 mps 764 mmHg 73%
    19:00 +5°C° 0 mm 3 mps 764 mmHg 80%
    20:00 +4°C° 0 mm 2 mps 764 mmHg 88%
    21:00 +4°C° 0 mm 2 mps 764 mmHg 88%
    22:00 +3°C° 0 mm 2 mps 764 mmHg 87%
    23:00 +3°C° 0 mm 2 mps 764 mmHg 87%

    2 April, Sunday

    Time Temperature Precipitation Wind Pressure Humidity
    00:00 +3°C° 0 mm 2 mps 764 mmHg 87%
    01:00 +3°C° 0 mm 2 mps 764 mmHg 86%
    02:00 +3°C° 0 mm 2 mps 764 mmHg 86%
    03:00 +3°C° 0 mm 2 mps 764 mmHg 86%
    04:00 +3°C° 0 mm 2 mps 764 mmHg 87%
    05:00 +2°C° 0 mm 2 mps 764 mmHg 87%
    06:00 +4°C° 0 mm 2 mps 764 mmHg 82%
    07:00 +6°C° 0 mm 2 mps 764 mmHg 77%
    08:00 +7°C° 0 mm 2 mps 765 mmHg 72%
    09:00 +9°C° 0 mm 3 mps 765 mmHg 67%
    10:00 +10°C° 0 mm 3 mps 765 mmHg 61%
    11:00 +12°C° 0 mm 3 mps 765 mmHg 56%
    12:00 +12°C° 0 mm 4 mps 765 mmHg 54%
    13:00 +13°C° 0 mm 4 mps 765 mmHg 53%
    14:00 +13°C° 0 mm 4 mps 764 mmHg 52%
    15:00 +12°C° 0 mm 4 mps 764 mmHg 55%
    16:00 +12°C° 0 mm 4 mps 764 mmHg 58%
    17:00 +11°C° 0 mm 4 mps 764 mmHg 62%
    18:00 +8°C° 0 mm 4 mps 764 mmHg 69%
    19:00 +7°C° 0 mm 3 mps 765 mmHg 77%
    20:00 +4°C° 0 mm 3 mps 765 mmHg 85%
    21:00 +4°C° 0 mm 3 mps 765 mmHg 85%
    22:00 +4°C° 0 mm 3 mps 765 mmHg 86%
    23:00 +4°C° 0 mm 3 mps 765 mmHg 86%

    3 April, Monday

    Time Temperature Precipitation Wind Pressure Humidity
    00:00 +4°C° 0 mm 3 mps 764 mmHg 86%
    01:00 +4°C° 0 mm 3 mps 764 mmHg 87%
    02:00 +4°C° 0 mm 3 mps 764 mmHg 87%
    03:00 +4°C° 0 mm 3 mps 764 mmHg 88%
    04:00 +4°C° 0 mm 3 mps 764 mmHg 89%
    05:00 +4°C° 0 mm 3 mps 764 mmHg 90%
    06:00 +5°C° 0 mm 3 mps 764 mmHg 86%
    07:00 +7°C° 0 mm 4 mps 764 mmHg 82%
    08:00 +10°C° 0 mm 4 mps 764 mmHg 79%
    09:00 +11°C° 0 mm 4 mps 764 mmHg 74%
    10:00 +12°C° 0 mm 4 mps 764 mmHg 70%
    11:00 +14°C° 0 mm 5 mps 764 mmHg 65%
    12:00 +14°C° 0 mm 4 mps 764 mmHg 64%
    13:00 +15°C° 0 mm 4 mps 763 mmHg 62%
    14:00 +15°C° 0 mm 4 mps 763 mmHg 61%
    15:00 +14°C° 0 mm 4 mps 763 mmHg 64%
    16:00 +13°C° 0 mm 4 mps 763 mmHg 67%
    17:00 +13°C° 0 mm 3 mps 762 mmHg 69%
    18:00 +11°C° 0 mm 3 mps 762 mmHg 76%
    19:00 +9°C° 0 mm 3 mps 763 mmHg 83%
    20:00 +7°C° 0 mm 2 mps 763 mmHg 90%
    21:00 +7°C° 0 mm 2 mps 763 mmHg 91%
    22:00 +7°C° 0 mm 1 mps 762 mmHg 92%
    23:00 +6°C° 0 mm 1 mps 762 mmHg 93%
    Show more